Weather in Ural

Russia / Orenburg Oblast     51°10′16″N   57°25′14″E
temp.,
°C
wind,
m/s
gust,
m/s
humid.,
%
clouds,
%
prec.,
mm/h
press.,
hPa
HPBL,
m
5 august, thu
thu523:00+24se4104288 0.1 1013162
02:00+23e22435 0.0 101212
05:00+22e2245100 0.0 101111
08:00+27se233399 0.0 1011144
11:00+34wsw3319100 0.0 1010823
14:00+38ssw591496 0.0 10083990
17:00+38sw581399 0.0 10074317
20:00+34nw61017100 0.0 1006365
6 august, fri
fri623:00+24ne4945100 0.0 1008178
02:00+21ene356020 0.0 100891
05:00+20n3365100 0.0 100842
08:00+20ne2279100 1.9 101091
11:00+25nne4555100 1.9 1010714
14:00+27nne4444100 0.0 10101510
17:00+27ne664381 0.0 10111380
20:00+25e465168 0.0 1011472
7 august, sat
sat723:00+20e226744 0.0 101312
02:00+18ne22705 0.0 101420
05:00+16nne22735 0.0 101512
08:00+20ene345515 0.0 1016305
11:00+25e22365 0.0 10161289
14:00+30n132539 0.0 10152221
17:00+31nnw231819 0.0 10142557
20:00+27nne33215 0.0 101561
8 august, sun
sun823:00+21ne33375 0.0 101729
02:00+19ne223963 0.0 101812
05:00+17ene2242100 0.0 101911
08:00+22ene233723 0.0 1020226
11:00+28nne3529100 0.0 10191448
14:00+32ne45259 0.0 10182415
17:00+33nne342247 0.0 10172952
20:00+29e333040 0.0 101749
9 august, mon
mon923:00+23ne2243100 0.0 101913
02:00+21e2150100 0.0 101911
05:00+20e1153100 0.0 101911
08:00+24se224291 0.0 1019172
11:00+31sw342899 0.0 10181295
14:00+34sw4422100 0.0 10173247
17:00+34sw4421100 0.0 10163278
20:00+30ssw3627100 0.0 1015101